Weather History for KMVN - August, 2012

Change the Weather History Date:

Monday, August 13, 2012

  Actual Average Record
Temperature  
Mean Temperature 71 °F -  
Max Temperature 80 °F 83 °F 98 °F (2010)
Min Temperature 62 °F 62 °F 46 °F (2004)
Cooling Degree Days 6    
Growing Degree Days 21 (Base 50)    
Moisture  
Dew Point 62 °F    
Average Humidity 71    
Maximum Humidity 94    
Minimum Humidity 53    
Precipitation  
Precipitation 1.29 in - - ()
Sea Level Pressure  
Sea Level Pressure 29.91 in    
Wind  
Wind Speed 6 mph (ESE)    
Max Wind Speed 17 mph    
Max Gust Speed 23 mph    
Visibility 10 miles    
Events Thunderstorm    
Averages and records for this station are not official NWS values.
T = Trace of Precipitation, MM = Missing Value Source: NWS Daily Summary

Daily Weather History Graph

Daily Weather History Graph

Search for Another Location

Airport or City:

Trip Planner

Search our weather history database for the weather conditions in past years. The results will help you decide how hot, cold, wet, or windy it might be!

Date:

Astronomy

Aug. 13, 2012 Rise Set
Actual Time 6:08 AM CDT 7:51 PM CDT
Civil Twilight 5:40 AM CDT 8:19 PM CDT
Nautical Twilight 5:06 AM CDT 8:53 PM CDT
Astronomical Twilight 4:29 AM CDT 9:29 PM CDT
Moon 2:13 AM CDT (8/13) 5:01 PM CDT (8/13)
Length of Visible Light 14h 38m
Length of Day
13h 42m
Waning Crescent, 16% of the Moon is Illuminated
Aug 13
Waning Crescent
Aug 17
New
Aug 24
First Quarter
Aug 31
Full
Sep 8
Last Quarter

Hourly Weather History & Observations

Time (CDT) Temp. Heat Index Dew Point Humidity Pressure Visibility Wind Dir Wind Speed Gust Speed Precip Events Conditions
12:15 AM 69.8 °F - 51.8 °F 53% 29.97 in 10.0 mi SE 4.6 mph - N/A   Clear
12:35 AM 68.0 °F - 51.8 °F 56% 29.96 in 10.0 mi SE 6.9 mph - N/A   Scattered Clouds
12:55 AM 69.8 °F - 51.8 °F 53% 29.95 in 10.0 mi SE 6.9 mph - N/A   Scattered Clouds
1:15 AM 69.8 °F - 51.8 °F 53% 29.94 in 10.0 mi SE 6.9 mph - N/A   Partly Cloudy
1:35 AM 69.8 °F - 51.8 °F 53% 29.93 in 10.0 mi SE 6.9 mph - N/A   Partly Cloudy
1:55 AM 69.8 °F - 53.6 °F 56% 29.92 in 10.0 mi SE 4.6 mph - N/A   Scattered Clouds
2:15 AM 69.8 °F - 53.6 °F 56% 29.91 in 10.0 mi SE 6.9 mph - N/A   Overcast
2:35 AM 69.8 °F - 53.6 °F 56% 29.91 in 10.0 mi SSE 6.9 mph - N/A   Mostly Cloudy
2:55 AM 69.8 °F - 53.6 °F 56% 29.91 in 10.0 mi SSE 5.8 mph - N/A   Overcast
3:15 AM 69.8 °F - 53.6 °F 56% 29.91 in 10.0 mi South 3.5 mph - N/A   Mostly Cloudy
3:35 AM 69.8 °F - 55.4 °F 60% 29.96 in 10.0 mi North 8.1 mph - N/A   Mostly Cloudy
3:55 AM 71.6 °F - 53.6 °F 53% 29.96 in 10.0 mi NNE 9.2 mph - N/A Thunderstorm Thunderstorm
4:15 AM 68.0 °F - 55.4 °F 64% 29.99 in 10.0 mi North 6.9 mph - 0.02 in Thunderstorm Thunderstorm
4:35 AM 64.4 °F - 59.0 °F 83% 29.96 in 7.0 mi East 10.4 mph - 0.12 in Thunderstorm Thunderstorm
4:55 AM 62.6 °F - 59.0 °F 88% 29.98 in 10.0 mi WNW 3.5 mph - 0.24 in Thunderstorm Thunderstorm
5:15 AM 62.6 °F - 59.0 °F 88% 29.98 in 8.0 mi NNE 3.5 mph - 0.13 in Thunderstorm Thunderstorm
5:35 AM 62.6 °F - 60.8 °F 94% 29.95 in 2.5 mi ESE 8.1 mph - 0.50 in Thunderstorm Thunderstorm
5:55 AM 64.4 °F - 60.8 °F 88% 29.93 in 7.0 mi SE 11.5 mph - 0.70 in Thunderstorm Thunderstorm
6:15 AM 64.4 °F - 60.8 °F 88% 29.94 in 3.0 mi ESE 3.5 mph - 0.24 in Thunderstorm Thunderstorm
6:35 AM 64.4 °F - 60.8 °F 88% 29.95 in 9.0 mi East 8.1 mph - 0.32 in Thunderstorm Thunderstorm
6:55 AM 64.4 °F - 60.8 °F 88% 29.93 in 10.0 mi East 10.4 mph - 0.34 in Thunderstorm Overcast
7:15 AM 64.4 °F - 60.8 °F 88% 29.92 in 8.0 mi East 10.4 mph - N/A Thunderstorm Thunderstorm
7:35 AM 64.4 °F - 60.8 °F 88% 29.92 in 8.0 mi ESE 10.4 mph - N/A Thunderstorm Mostly Cloudy
7:55 AM 64.4 °F - 60.8 °F 88% 29.91 in 10.0 mi ESE 8.1 mph - N/A   Overcast
8:15 AM 64.4 °F - 62.6 °F 94% 29.91 in 10.0 mi SE 3.5 mph - N/A   Overcast
8:35 AM 66.2 °F - 62.6 °F 88% 29.90 in 10.0 mi SE 8.1 mph - N/A   Overcast
8:55 AM 66.2 °F - 64.4 °F 94% 29.90 in 10.0 mi SE 6.9 mph - 0.01 in   Overcast
9:15 AM 68.0 °F - 64.4 °F 88% 29.90 in 10.0 mi SE 6.9 mph - N/A   Overcast
9:35 AM 69.8 °F - 64.4 °F 83% 29.90 in 10.0 mi SE 6.9 mph - N/A   Mostly Cloudy
9:55 AM 69.8 °F - 64.4 °F 83% 29.90 in 10.0 mi SE 8.1 mph - N/A   Partly Cloudy
10:15 AM 71.6 °F - 64.4 °F 78% 29.90 in 10.0 mi SE 13.8 mph 21.9 mph N/A   Clear
10:35 AM 73.4 °F - 66.2 °F 78% 29.90 in 10.0 mi SSE 15.0 mph 20.7 mph N/A   Clear
10:55 AM 73.4 °F - 64.4 °F 73% 29.90 in 10.0 mi SSE 13.8 mph 19.6 mph N/A   Partly Cloudy
11:15 AM 75.2 °F - 64.4 °F 69% 29.90 in 10.0 mi South 17.3 mph 23.0 mph N/A   Partly Cloudy
11:35 AM 75.2 °F - 64.4 °F 69% 29.90 in 10.0 mi South 15.0 mph 21.9 mph N/A   Mostly Cloudy
11:55 AM 75.2 °F - 64.4 °F 69% 29.90 in 10.0 mi South 11.5 mph 18.4 mph N/A   Overcast
12:15 PM 75.2 °F - 64.4 °F 69% 29.90 in 10.0 mi South 12.7 mph - N/A   Overcast
12:35 PM 75.2 °F - 64.4 °F 69% 29.90 in 10.0 mi SSE 10.4 mph - N/A   Overcast
12:55 PM 75.2 °F - 64.4 °F 69% 29.90 in 10.0 mi South 10.4 mph - N/A   Overcast
1:15 PM 75.2 °F - 66.2 °F 73% 29.89 in 10.0 mi South 9.2 mph - N/A   Overcast
1:35 PM 75.2 °F - 66.2 °F 73% 29.89 in 10.0 mi South 5.8 mph - N/A   Overcast
1:55 PM 75.2 °F - 66.2 °F 73% 29.89 in 10.0 mi South 8.1 mph - N/A   Overcast
2:15 PM 77.0 °F - 66.2 °F 69% 29.88 in 10.0 mi SSW 4.6 mph - N/A   Overcast
2:35 PM 77.0 °F - 66.2 °F 69% 29.88 in 10.0 mi SW 5.8 mph - N/A   Overcast
2:55 PM 77.0 °F - 66.2 °F 69% 29.88 in 10.0 mi South 5.8 mph - N/A   Overcast
3:15 PM 78.8 °F - 66.2 °F 65% 29.87 in 10.0 mi SE 6.9 mph - N/A   Overcast
3:35 PM 80.6 °F 82.7 °F 66.2 °F 61% 29.86 in 10.0 mi ESE 4.6 mph - N/A   Mostly Cloudy
3:55 PM 78.8 °F - 66.2 °F 65% 29.87 in 10.0 mi North 3.5 mph - N/A   Mostly Cloudy
4:15 PM 80.6 °F 82.7 °F 66.2 °F 61% 29.86 in 10.0 mi North 4.6 mph - N/A   Overcast
4:35 PM 80.6 °F 82.7 °F 66.2 °F 61% 29.87 in 10.0 mi Calm Calm - N/A   Overcast
4:55 PM 78.8 °F - 66.2 °F 65% 29.87 in 10.0 mi Calm Calm - N/A   Mostly Cloudy
5:15 PM 80.6 °F 82.7 °F 66.2 °F 61% 29.87 in 10.0 mi NNE 4.6 mph - N/A   Mostly Cloudy
5:35 PM 78.8 °F - 66.2 °F 65% 29.86 in 10.0 mi NNE 5.8 mph - N/A   Overcast
5:55 PM 78.8 °F - 66.2 °F 65% 29.87 in 10.0 mi NE 3.5 mph - N/A   Overcast
6:15 PM 78.8 °F - 66.2 °F 65% 29.87 in 10.0 mi Calm Calm - N/A   Mostly Cloudy
6:35 PM 78.8 °F - 66.2 °F 65% 29.87 in 10.0 mi Calm Calm - N/A   Overcast
6:55 PM 78.8 °F - 64.4 °F 61% 29.88 in 10.0 mi North 5.8 mph - N/A   Overcast
7:15 PM 77.0 °F - 64.4 °F 65% 29.88 in 10.0 mi North 3.5 mph - N/A   Scattered Clouds
7:35 PM 75.2 °F - 64.4 °F 69% 29.89 in 10.0 mi North 3.5 mph - N/A   Scattered Clouds
7:55 PM 75.2 °F - 64.4 °F 69% 29.89 in 10.0 mi Calm Calm - N/A   Overcast
8:15 PM 75.2 °F - 64.4 °F 69% 29.89 in 10.0 mi Calm Calm - N/A   Overcast
8:35 PM 75.2 °F - 64.4 °F 69% 29.90 in 10.0 mi North 3.5 mph - N/A   Overcast
8:55 PM 75.2 °F - 64.4 °F 69% 29.91 in 10.0 mi North 5.8 mph - N/A   Mostly Cloudy
9:15 PM 73.4 °F - 64.4 °F 73% 29.92 in 10.0 mi North 4.6 mph - N/A   Overcast
9:35 PM 73.4 °F - 62.6 °F 69% 29.93 in 10.0 mi North 4.6 mph - N/A   Overcast
9:55 PM 73.4 °F - 62.6 °F 69% 29.94 in 10.0 mi Calm Calm - N/A   Overcast
10:15 PM 73.4 °F - 62.6 °F 69% 29.94 in 10.0 mi Calm Calm - N/A   Overcast
10:35 PM 73.4 °F - 62.6 °F 69% 29.95 in 10.0 mi NNW 3.5 mph - N/A   Overcast
10:55 PM 71.6 °F - 62.6 °F 73% 29.95 in 10.0 mi NW 3.5 mph - N/A   Mostly Cloudy
11:15 PM 71.6 °F - 62.6 °F 73% 29.95 in 10.0 mi Calm Calm - N/A   Partly Cloudy
11:35 PM 71.6 °F - 62.6 °F 73% 29.95 in 10.0 mi Calm Calm - N/A   Clear
11:55 PM 69.8 °F - 62.6 °F 78% 29.95 in 10.0 mi North 3.5 mph - N/A   Clear